| time (UTC) | temp F | wind direction | speed MPH | gust MPH | rain 1hr in | rain 24hr in | rain mn in | humidity % | barometer mb |
| 20260510174545 | 70 | 241 | 0.0 | 4.0 | 0.00 | 0.45 | 0.01 | 66 | 1012.3 |
| 20260510173056 | 69 | 249 | 2.0 | 6.0 | 0.00 | 0.45 | 0.01 | 65 | 1012.5 |
| 20260510171554 | 68 | 101 | 1.0 | 5.0 | 0.00 | 0.45 | 0.01 | 66 | 1012.6 |
| 20260510170101 | 69 | 178 | 2.0 | 6.0 | 0.00 | 0.45 | 0.01 | 65 | 1012.6 |
| 20260510164548 | 68 | 157 | 1.0 | 6.0 | 0.00 | 0.48 | 0.01 | 64 | 1012.4 |
| 20260510163049 | 67 | 129 | 2.0 | 5.0 | 0.00 | 0.48 | 0.01 | 68 | 1012.7 |
| 20260510161550 | 66 | 133 | 2.0 | 7.0 | 0.00 | 0.48 | 0.01 | 69 | 1012.8 |
| 20260510160050 | 65 | 194 | 1.0 | 6.0 | 0.00 | 0.48 | 0.01 | 72 | 1012.9 |
| 20260510154550 | 65 | 137 | 1.0 | 5.0 | 0.00 | 0.51 | 0.01 | 72 | 1013.1 |
| 20260510153048 | 63 | 340 | 1.0 | 4.0 | 0.00 | 0.51 | 0.01 | 74 | 1013.2 |
| 20260510151552 | 62 | 149 | 1.0 | 5.0 | 0.00 | 0.51 | 0.01 | 76 | 1013.1 |
| 20260510150053 | 61 | 125 | 1.0 | 4.0 | 0.00 | 0.51 | 0.01 | 78 | 1013.3 |
| 20260510144551 | 60 | 157 | 1.0 | 5.0 | 0.00 | 0.55 | 0.01 | 79 | 1013.5 |
| 20260510143050 | 59 | 267 | 0.0 | 3.0 | 0.00 | 0.55 | 0.01 | 83 | 1013.4 |
| 20260510141600 | 58 | 318 | 0.0 | 3.0 | 0.00 | 0.55 | 0.01 | 83 | 1013.6 |
| 20260510140053 | 57 | 312 | 0.0 | 4.0 | 0.00 | 0.55 | 0.01 | 85 | 1013.7 |
| 20260510134559 | 56 | 30 | 1.0 | 3.0 | 0.00 | 0.55 | 0.01 | 86 | 1013.6 |
| 20260510133102 | 56 | 217 | 0.0 | 3.0 | 0.00 | 0.55 | 0.01 | 87 | 1013.5 |
| 20260510131601 | 54 | 190 | 0.0 | 3.0 | 0.00 | 0.55 | 0.01 | 87 | 1013.6 |
| 20260510130050 | 54 | 188 | 1.0 | 4.0 | 0.00 | 0.55 | 0.01 | 87 | 1013.5 |
| 20260510124548 | 54 | 177 | 1.0 | 4.0 | 0.00 | 0.55 | 0.01 | 86 | 1013.6 |
| 20260510123100 | 53 | 225 | 0.0 | 5.0 | 0.00 | 0.55 | 0.01 | 85 | 1013.4 |
| 20260510121552 | 53 | 0 | 1.0 | 4.0 | 0.00 | 0.55 | 0.01 | 85 | 1013.4 |
| 20260510120048 | 52 | 215 | 1.0 | 3.0 | 0.00 | 0.55 | 0.01 | 85 | 1013.5 |
| 20260510114550 | 52 | 221 | 0.0 | 2.0 | 0.00 | 0.55 | 0.01 | 85 | 1013.5 |
| 20260510113053 | 52 | 128 | 0.0 | 2.0 | 0.00 | 0.55 | 0.01 | 85 | 1013.3 |
| 20260510111551 | 51 | 0 | 0.0 | 3.0 | 0.00 | 0.55 | 0.01 | 85 | 1012.8 |
| 20260510110043 | 50 | 128 | 1.0 | 4.0 | 0.00 | 0.55 | 0.01 | 85 | 1012.9 |
| 20260510104551 | 49 | 0 | 0.0 | 2.0 | 0.00 | 0.55 | 0.01 | 85 | 1012.8 |
| 20260510103055 | 48 | 0 | 0.0 | 1.0 | 0.00 | 0.55 | 0.01 | 86 | 1013.4 |
| 20260510101552 | 48 | 0 | 0.0 | 1.0 | 0.00 | 0.55 | 0.01 | 86 | 1013.0 |
| 20260510100055 | 47 | 0 | 0.0 | 0.0 | 0.00 | 0.55 | 0.01 | 86 | 1013.2 |
| 20260510094551 | 47 | 0 | 0.0 | 1.0 | 0.00 | 0.55 | 0.01 | 86 | 1012.9 |
| 20260510093050 | 48 | 0 | 0.0 | 0.0 | 0.00 | 0.55 | 0.01 | 86 | 1012.7 |
| 20260510091552 | 49 | 0 | 0.0 | 0.0 | 0.00 | 0.55 | 0.01 | 86 | 1012.6 |
| 20260510090058 | 49 | 0 | 0.0 | 0.0 | 0.00 | 0.55 | 0.01 | 86 | 1012.5 |
| 20260510084543 | 50 | 0 | 0.0 | 1.0 | 0.00 | 0.55 | 0.01 | 85 | 1012.4 |
| 20260510083055 | 50 | 0 | 0.0 | 2.0 | 0.00 | 0.55 | 0.01 | 85 | 1012.4 |
| 20260510081553 | 50 | 0 | 0.0 | 2.0 | 0.00 | 0.55 | 0.01 | 85 | 1012.4 |
| 20260510080050 | 50 | 139 | 0.0 | 2.0 | 0.00 | 0.55 | 0.01 | 85 | 1012.2 |
| 20260510074553 | 50 | 0 | 0.0 | 1.0 | 0.00 | 0.55 | 0.01 | 85 | 1012.2 |
| 20260510073111 | 50 | 0 | 0.0 | 1.0 | 0.00 | 0.55 | 0.01 | 85 | 1012.1 |
| 20260510071603 | 50 | 0 | 0.0 | 0.0 | 0.00 | 0.55 | 0.01 | 85 | 1011.9 |
| 20260510070050 | 50 | 0 | 0.0 | 0.0 | 0.00 | 0.55 | 0.01 | 85 | 1011.9 |
| 20260510064559 | 50 | 0 | 0.0 | 0.0 | 0.00 | 0.55 | 0.01 | 85 | 1012.0 |
| 20260510063050 | 50 | 0 | 0.0 | 0.0 | 0.00 | 0.55 | 0.01 | 85 | 1012.1 |
| 20260510061555 | 50 | 0 | 0.0 | 1.0 | 0.00 | 0.55 | 0.01 | 85 | 1011.9 |
| 20260510060049 | 50 | 139 | 0.0 | 1.0 | 0.00 | 0.55 | 0.01 | 85 | 1012.1 |
| 20260510054548 | 50 | 0 | 0.0 | 1.0 | 0.01 | 0.55 | 0.01 | 85 | 1012.3 |
| 20260510053048 | 50 | 0 | 0.0 | 0.0 | 0.01 | 0.55 | 0.01 | 85 | 1012.6 |
| 20260510051545 | 49 | 0 | 0.0 | 2.0 | 0.01 | 0.55 | 0.01 | 86 | 1012.7 |
| 20260510050052 | 49 | 0 | 0.0 | 1.0 | 0.01 | 0.55 | 0.01 | 86 | 1012.7 |
| 20260510045049 | 48 | 0 | 0.0 | 1.0 | 0.00 | 0.54 | 0.00 | 86 | 1012.7 |
| 20260510043106 | 48 | 0 | 0.0 | 1.0 | 0.00 | 0.54 | 0.00 | 86 | 1012.5 |
| 20260510041550 | 48 | 0 | 0.0 | 0.0 | 0.00 | 0.54 | 0.00 | 86 | 1012.3 |
| 20260510040110 | 48 | 0 | 0.0 | 1.0 | 0.00 | 0.54 | 0.00 | 86 | 1012.7 |
| 20260510034549 | 48 | 0 | 0.0 | 1.0 | 0.00 | 0.54 | 0.54 | 86 | 1012.9 |
| 20260510033053 | 48 | 0 | 0.0 | 0.0 | 0.00 | 0.54 | 0.54 | 86 | 1013.0 |
| 20260510031554 | 48 | 0 | 0.0 | 0.0 | 0.00 | 0.54 | 0.54 | 86 | 1013.3 |
| 20260510030048 | 48 | 0 | 0.0 | 0.0 | 0.00 | 0.54 | 0.54 | 86 | 1013.3 |
| 20260510024546 | 48 | 0 | 0.0 | 0.0 | 0.00 | 0.54 | 0.54 | 86 | 1013.4 |
| 20260510023048 | 48 | 0 | 0.0 | 1.0 | 0.01 | 0.54 | 0.54 | 86 | 1013.6 |
| 20260510021551 | 48 | 0 | 0.0 | 1.0 | 0.01 | 0.54 | 0.54 | 86 | 1013.4 |
| 20260510020055 | 47 | 0 | 0.0 | 1.0 | 0.01 | 0.54 | 0.54 | 86 | 1013.7 |
| 20260510014618 | 47 | 0 | 0.0 | 1.0 | 0.01 | 0.54 | 0.54 | 86 | 1014.0 |
| 20260510013051 | 47 | 139 | 0.0 | 1.0 | 0.01 | 0.52 | 0.52 | 86 | 1013.7 |
| 20260510011556 | 47 | 0 | 0.0 | 2.0 | 0.04 | 0.52 | 0.52 | 86 | 1013.4 |
| 20260510010054 | 47 | 0 | 0.0 | 2.0 | 0.06 | 0.52 | 0.52 | 86 | 1013.5 |
| 20260510004551 | 47 | 139 | 1.0 | 2.0 | 0.09 | 0.52 | 0.52 | 86 | 1013.4 |
| 20260510003057 | 47 | 139 | 0.0 | 2.0 | 0.11 | 0.52 | 0.52 | 87 | 1013.6 |
| 20260510001554 | 47 | 0 | 0.0 | 2.0 | 0.10 | 0.49 | 0.49 | 87 | 1013.7 |
| 20260510000052 | 47 | 139 | 0.0 | 2.0 | 0.09 | 0.47 | 0.47 | 87 | 1013.7 |
| 20260509234548 | 47 | 0 | 0.0 | 2.0 | 0.07 | 0.44 | 0.44 | 87 | 1013.8 |
| 20260509233053 | 47 | 139 | 0.0 | 2.0 | 0.04 | 0.41 | 0.41 | 87 | 1013.5 |
| 20260509231549 | 47 | 139 | 0.0 | 1.0 | 0.03 | 0.39 | 0.39 | 87 | 1013.4 |
| 20260509230051 | 47 | 0 | 0.0 | 2.0 | 0.03 | 0.38 | 0.38 | 87 | 1013.4 |
| 20260509224557 | 47 | 0 | 0.0 | 1.0 | 0.03 | 0.37 | 0.37 | 87 | 1013.5 |
| 20260509223049 | 47 | 0 | 0.0 | 1.0 | 0.05 | 0.37 | 0.37 | 87 | 1013.4 |
| 20260509221602 | 47 | 0 | 0.0 | 1.0 | 0.10 | 0.36 | 0.36 | 87 | 1013.5 |
| 20260509220050 | 47 | 0 | 0.0 | 1.0 | 0.11 | 0.35 | 0.35 | 87 | 1013.4 |
| 20260509214553 | 47 | 0 | 0.0 | 2.0 | 0.14 | 0.34 | 0.34 | 87 | 1013.3 |
| 20260509213049 | 47 | 139 | 0.0 | 2.0 | 0.18 | 0.32 | 0.32 | 87 | 1013.4 |
| 20260509211548 | 47 | 0 | 0.0 | 2.0 | 0.15 | 0.26 | 0.26 | 87 | 1013.6 |
| 20260509210058 | 47 | 0 | 0.0 | 2.0 | 0.13 | 0.24 | 0.24 | 88 | 1013.5 |
| 20260509204556 | 47 | 0 | 0.0 | 2.0 | 0.09 | 0.20 | 0.20 | 88 | 1013.7 |
| 20260509203049 | 48 | 0 | 0.0 | 2.0 | 0.03 | 0.14 | 0.14 | 87 | 1013.9 |
| 20260509201556 | 48 | 139 | 0.0 | 3.0 | 0.00 | 0.11 | 0.11 | 87 | 1014.0 |
| 20260509200057 | 48 | 0 | 0.0 | 2.0 | 0.00 | 0.11 | 0.11 | 87 | 1014.2 |
| 20260509194550 | 48 | 139 | 0.0 | 2.0 | 0.00 | 0.11 | 0.11 | 87 | 1013.8 |
| 20260509193051 | 48 | 0 | 1.0 | 3.0 | 0.00 | 0.11 | 0.11 | 87 | 1013.3 |
| 20260509191548 | 48 | 130 | 1.0 | 6.0 | 0.00 | 0.11 | 0.11 | 87 | 1013.3 |
| 20260509190101 | 49 | 212 | 0.0 | 3.0 | 0.00 | 0.11 | 0.11 | 87 | 1013.6 |
| 20260509184544 | 49 | 0 | 0.0 | 3.0 | 0.01 | 0.11 | 0.11 | 87 | 1013.7 |
| 20260509183049 | 49 | 0 | 0.0 | 2.0 | 0.01 | 0.11 | 0.11 | 87 | 1014.8 |
| 20260509181553 | 49 | 135 | 1.0 | 3.0 | 0.01 | 0.11 | 0.11 | 87 | 1014.6 |
| 20260509180053 | 49 | 134 | 0.0 | 2.0 | 0.01 | 0.11 | 0.11 | 87 | 1014.6 |